(293836) = 2007 RQ206

Discovered at Kitt Peak on 2007-09-10 by Spacewatch.

Orbit

Orbit type: Main Belt

Note: WebGL enabled browser required.

epoch2023-09-13.0
epoch JD2460200.5
perihelion date2021-05-06.00636
perihelion JD2459340.50636
argument of perihelion (°)250.86439
ascending node (°)101.89730
inclination (°)2.84731
eccentricity0.0779474
perihelion distance (AU)2.5464755
Tisserand w.r.t. Jupiter3.3
ΔV w.r.t. Earth (km/sec)10.0
semimajor axis (AU)2.7617464
mean anomaly (°)184.68149
mean daily motion (°/day)0.21474750
aphelion distance (AU)2.977
period (years)4.59
P-vector [x]0.99088940
P-vector [y]-0.09715273
P-vector [z]-0.09327140
Q-vector [x]0.12560068
Q-vector [y]0.91657101
Q-vector [z]0.37963410
absolute magnitude17.04
phase slope0.15
uncertainty0
referenceMPEC 2023-Y63
observations used214
oppositions12
arc length (days)7510
first opposition used2002
last opposition used2023
residual rms (arc-secs)0.80
perturbers coarse indicatorM-v
perturbers precise indicator003Ek
first observation date used2002-07-29.0
last observation date used2023-02-19.0
computer nameMPCLINUX
Minimum Orbit Intersection Distances (in AU)
for orbit epoch: 2460200.5, reference: E2023-Y63
Mercury2.16019
Venus1.81952
Earth1.54187
Mars1.15251
Jupiter2.35188
Saturn6.23119
Uranus15.4726
Neptune27.2275

Observations

219 total observations over interval: 2002 07 29.23014 – 2023 02 19.19171
These data are available for download (format description).

Date (UT) J2000 RA J2000 Dec Magn Location Ref
2002 07 29.23014 21 38 39.45 -16 45 50.7 20.2 R 644 – Palomar Mountain/NEAT MPS 223518
2002 07 29.29321 21 38 36.58 -16 46 10.1 20.8 R 644 – Palomar Mountain/NEAT MPS 223518
2002 07 29.35646 21 38 33.67 -16 46 29.6 20.2 R 644 – Palomar Mountain/NEAT MPS 223518
2002 08 08.35172 21 30 39.45 -17 37 28.4 20.2 R 644 – Palomar Mountain/NEAT MPS 223518
2002 08 08.36343 21 30 38.83 -17 37 32.0 20.2 R 644 – Palomar Mountain/NEAT MPS 223518
2002 08 08.37385 21 30 38.28 -17 37 35.1 19.7 R 644 – Palomar Mountain/NEAT MPS 223518
2002 08 18.32720 21 22 15.84 -18 26 23.1 20.1 R 644 – Palomar Mountain/NEAT MPS 223518
2002 08 18.35750 21 22 14.29 -18 26 30.9 20.2 R 644 – Palomar Mountain/NEAT MPS 223518
2002 08 29.29303 21 13 44.45 -19 11 19.5 20.5 R 644 – Palomar Mountain/NEAT MPS 223518
2002 08 29.31392 21 13 43.57 -19 11 23.9 20.4 R 644 – Palomar Mountain/NEAT MPS 223518
2003 12 29.18008 04 43 09.63 +20 41 25.5 21.9 V 691 – Steward Observatory, Kitt Peak-Spacewatch MPS 272687
2003 12 29.20872 04 43 08.31 +20 41 25.0 21.9 V 691 – Steward Observatory, Kitt Peak-Spacewatch MPS 272687
2003 12 29.23566 04 43 07.04 +20 41 24.6 22.1 V 691 – Steward Observatory, Kitt Peak-Spacewatch MPS 272687
2007 09 10.33071 00 55 09.09 +01 03 39.2 20.4 V 691 – Steward Observatory, Kitt Peak-Spacewatch MPS 216551
2007 09 10.34838 00 55 08.42 +01 03 34.5 20.4 V 691 – Steward Observatory, Kitt Peak-Spacewatch MPS 216551
2007 09 10.36596 00 55 07.83 +01 03 29.6 20.6 V 691 – Steward Observatory, Kitt Peak-Spacewatch MPS 216551
2007 09 15.34597 00 52 04.98 +00 39 03.5   691 – Steward Observatory, Kitt Peak-Spacewatch MPS 216551
2007 09 15.36136 00 52 04.37 +00 38 58.6   691 – Steward Observatory, Kitt Peak-Spacewatch MPS 216551
2007 09 15.37421 00 52 03.84 +00 38 54.3   691 – Steward Observatory, Kitt Peak-Spacewatch MPS 216551
2007 10 16.28230 00 28 11.24 -01 56 46.9 20.5 V G96 – Mt. Lemmon Survey MPS 223518
2007 10 16.29170 00 28 10.77 -01 56 48.9 20.5 V G96 – Mt. Lemmon Survey MPS 223518
2007 10 16.30125 00 28 10.38 -01 56 51.1 20.4 V G96 – Mt. Lemmon Survey MPS 223518
2007 10 16.31067 00 28 09.94 -01 56 53.2 20.3 V G96 – Mt. Lemmon Survey MPS 223518
2007 10 20.20451 00 25 27.01 -02 11 05.3 19.6 V G96 – Mt. Lemmon Survey MPS 223518
2007 10 20.21059 00 25 26.76 -02 11 06.7 20.5 V G96 – Mt. Lemmon Survey MPS 223518
2007 10 20.21671 00 25 26.47 -02 11 07.8 20.3 V G96 – Mt. Lemmon Survey MPS 223518
2007 10 20.22277 00 25 26.22 -02 11 09.2 20.5 V G96 – Mt. Lemmon Survey MPS 223518
2008 12 30.35421 08 05 09.78 +21 06 05.7 21.1 V 691 – Steward Observatory, Kitt Peak-Spacewatch MPS 271778
2008 12 30.37233 08 05 08.85 +21 06 09.1 21.1 V 691 – Steward Observatory, Kitt Peak-Spacewatch MPS 271778
2008 12 30.39070 08 05 07.93 +21 06 13.0 21.0 V 691 – Steward Observatory, Kitt Peak-Spacewatch MPS 271778
2009 01 03.36092 08 01 45.56 +21 20 02.3 20.8 V 691 – Steward Observatory, Kitt Peak-Spacewatch MPS 271778
2009 01 03.37655 08 01 44.70 +21 20 05.8 20.7 V 691 – Steward Observatory, Kitt Peak-Spacewatch MPS 271778
2009 01 03.39217 08 01 43.84 +21 20 09.3 20.7 V 691 – Steward Observatory, Kitt Peak-Spacewatch MPS 271778
2009 01 07.36986 07 58 08.49 +21 34 14.1 20.8 V 691 – Steward Observatory, Kitt Peak-Spacewatch MPS 271778
2009 01 07.38550 07 58 07.62 +21 34 17.3 21.2 V 691 – Steward Observatory, Kitt Peak-Spacewatch MPS 271778
2009 01 07.40114 07 58 06.73 +21 34 20.9 20.8 V 691 – Steward Observatory, Kitt Peak-Spacewatch MPS 271778
2010 04 09.32120 13 21 48.81 -04 01 07.9 21.2 V G96 – Mt. Lemmon Survey MPS 322266
2010 04 09.32960 13 21 48.38 -04 01 05.7 21.1 V G96 – Mt. Lemmon Survey MPS 322266
2010 04 09.33806 13 21 47.95 -04 01 03.0 20.9 V G96 – Mt. Lemmon Survey MPS 322266
2010 04 09.34652 13 21 47.52 -04 01 00.9 20.8 V G96 – Mt. Lemmon Survey MPS 322266
2010 04 13.32597 13 18 31.10 -03 41 40.3 21.3 V G96 – Mt. Lemmon Survey MPS 322266
2010 04 13.33151 13 18 30.81 -03 41 39.3 21.2 V G96 – Mt. Lemmon Survey MPS 322266
2010 04 13.33709 13 18 30.52 -03 41 37.5 21.3 V G96 – Mt. Lemmon Survey MPS 322266
2010 04 13.34272 13 18 30.27 -03 41 35.8 21.2 V G96 – Mt. Lemmon Survey MPS 322266
2012 10 21.39125 04 03 42.17 +17 18 45.5 21.0 V 691 – Steward Observatory, Kitt Peak-Spacewatch MPS 439388
2012 10 21.40892 04 03 41.71 +17 18 43.5 20.9 V 691 – Steward Observatory, Kitt Peak-Spacewatch MPS 439388
2012 10 21.42661 04 03 41.08 +17 18 41.9 20.9 V 691 – Steward Observatory, Kitt Peak-Spacewatch MPS 439388
2012 10 24.599127 04 01 50.408 +17 13 07.48 20.4 i F51 – Pan-STARRS 1, Haleakala MPS 439388
2012 10 24.599786 04 01 50.375 +17 13 07.30 20.6 i F51 – Pan-STARRS 1, Haleakala MPS 439388
2012 10 24.612865 04 01 49.886 +17 13 05.51 20.6 i F51 – Pan-STARRS 1, Haleakala MPS 439388
2012 10 24.613529 04 01 49.863 +17 13 05.78 20.4 i F51 – Pan-STARRS 1, Haleakala MPS 439388
2012 10 25.42506 04 01 19.28 +17 11 34.5 21.0 V 691 – Steward Observatory, Kitt Peak-Spacewatch MPS 439388
2012 10 25.44272 04 01 18.58 +17 11 32.3 21.4 V 691 – Steward Observatory, Kitt Peak-Spacewatch MPS 439388
2012 10 25.46040 04 01 17.84 +17 11 30.4 21.0 V 691 – Steward Observatory, Kitt Peak-Spacewatch MPS 439388
2012 11 04.26778 03 54 01.49 +16 51 09.4 20.7 V 691 – Steward Observatory, Kitt Peak-Spacewatch MPS 441516
2012 11 04.28545 03 54 00.60 +16 51 06.8 21.0 V 691 – Steward Observatory, Kitt Peak-Spacewatch MPS 441516
2012 11 04.30313 03 53 59.68 +16 51 04.7 21.0 V 691 – Steward Observatory, Kitt Peak-Spacewatch MPS 441516
2012 11 06.532269 03 52 05.838 +16 46 01.94 20.4 i F51 – Pan-STARRS 1, Haleakala MPS 441516
2012 11 06.545410 03 52 05.147 +16 45 59.99 20.4 i F51 – Pan-STARRS 1, Haleakala MPS 441516
2012 11 07.373288 03 51 22.203 +16 44 05.44 20.9 w F51 – Pan-STARRS 1, Haleakala MPS 441516
2012 11 07.388464 03 51 21.432 +16 44 03.72 21.5 w F51 – Pan-STARRS 1, Haleakala MPS 441516
2012 11 07.418719 03 51 19.739 +16 43 59.37 20.6 w F51 – Pan-STARRS 1, Haleakala MPS 441516
2012 11 14.17873 03 45 10.54 +16 28 03.7 20.1 V 691 – Steward Observatory, Kitt Peak-Spacewatch MPS 443276
2012 11 14.19659 03 45 09.46 +16 28 01.0 20.2 V 691 – Steward Observatory, Kitt Peak-Spacewatch MPS 443276
2012 11 14.21445 03 45 08.43 +16 27 58.2 20.5 V 691 – Steward Observatory, Kitt Peak-Spacewatch MPS 443276
2012 11 19.17304 03 40 28.15 +16 16 20.5 20.4 V 691 – Steward Observatory, Kitt Peak-Spacewatch MPS 444778
2012 11 19.19074 03 40 27.13 +16 16 17.9 20.5 V 691 – Steward Observatory, Kitt Peak-Spacewatch MPS 444778
2012 11 19.21191 03 40 25.86 +16 16 15.4 20.1 V 691 – Steward Observatory, Kitt Peak-Spacewatch MPS 444778
2012 11 23.18058 03 36 42.74 +16 07 18.5 20.4 V 691 – Steward Observatory, Kitt Peak-Spacewatch MPS 444778
2012 11 23.20315 03 36 41.46 +16 07 15.1 20.2 V 691 – Steward Observatory, Kitt Peak-Spacewatch MPS 444778
2012 11 23.21833 03 36 40.63 +16 07 13.3 20.4 V 691 – Steward Observatory, Kitt Peak-Spacewatch MPS 444778
2012 12 04.11873 03 27 09.61 +15 46 09.6 20.2 V G96 – Mt. Lemmon Survey MPS 445866
2012 12 04.12625 03 27 09.32 +15 46 09.0 20.0 V G96 – Mt. Lemmon Survey MPS 445866
2012 12 04.13387 03 27 08.92 +15 46 08.9 20.6 V G96 – Mt. Lemmon Survey MPS 445866
2012 12 04.14145 03 27 08.56 +15 46 08.4 20.7 V G96 – Mt. Lemmon Survey MPS 445866
2015 04 23.51753 15 57 02.683 -17 06 45.48 21.1 w F52 – Pan-STARRS 2, Haleakala MPS 602910
2015 04 23.53126 15 57 02.148 -17 06 43.64 21.0 w F52 – Pan-STARRS 2, Haleakala MPS 602910
2015 04 23.54497 15 57 01.584 -17 06 42.33 21.3 w F52 – Pan-STARRS 2, Haleakala MPS 602910
2015 04 23.55868 15 57 01.071 -17 06 40.25 21.1 w F52 – Pan-STARRS 2, Haleakala MPS 602910
2015 05 20.20586 15 35 34.54 -16 04 28.3 20.9 V W84 – Cerro Tololo-DECam MPS 789409
2015 05 20.20910 15 35 34.36 -16 04 27.7   W84 – Cerro Tololo-DECam MPS 789409
2015 05 20.21234 15 35 34.18 -16 04 27.3   W84 – Cerro Tololo-DECam MPS 789409
2015 05 20.21554 15 35 34.00 -16 04 26.9   W84 – Cerro Tololo-DECam MPS 789409
2015 05 20.21882 15 35 33.82 -16 04 26.4   W84 – Cerro Tololo-DECam MPS 789409
2015 05 21.24422 15 34 38.76 -16 01 58.6 20.9 V W84 – Cerro Tololo-DECam MPS 789409
2015 05 21.24746 15 34 38.59 -16 01 58.1   W84 – Cerro Tololo-DECam MPS 789409
2015 05 21.25071 15 34 38.40 -16 01 57.7   W84 – Cerro Tololo-DECam MPS 789409
2015 05 21.25395 15 34 38.23 -16 01 57.2   W84 – Cerro Tololo-DECam MPS 789409
2015 05 21.25719 15 34 38.05 -16 01 56.7   W84 – Cerro Tololo-DECam MPS 789409
2015 05 22.28945 15 33 42.80 -15 59 29.4 21.0 V W84 – Cerro Tololo-DECam MPS 789409
